FW6835 Weather Reports


time (UTC)temp
F
wind
direction
speed
knots
gust
knots
rain 1hr
in
rain 24hr
in
rain mn
in
humidity
%
barometer
mb
20260509033603 44 331 0.0 1.7 0.00 0.01 0.00 93 1021.7
20260509033100 44 63 0.0 0.0 0.00 0.01 0.00 93 1021.6
20260509033002 44 63 0.0 0.0 0.00 0.01 0.00 93 1021.7
20260509032559 44 63 0.0 0.0 0.00 0.01 0.00 93 1021.7
20260509032058 44 63 0.0 0.0 0.00 0.01 0.00 93 1021.6
20260509031602 44 74 0.0 1.7 0.00 0.01 0.00 94 1021.6
20260509031058 44 76 0.0 1.7 0.00 0.01 0.00 94 1021.7
20260509030558 44 76 0.0 1.7 0.00 0.01 0.00 94 1021.8
20260509030113 44 78 0.0 1.7 0.00 0.01 0.00 94 1021.8
20260509025557 44 76 0.0 0.0 0.00 0.01 0.00 94 1021.8
20260509025101 44 77 0.0 1.7 0.00 0.01 0.00 94 1021.7
20260509024601 44 78 0.0 2.6 0.00 0.01 0.00 94 1021.8
20260509024057 44 68 0.0 1.7 0.00 0.01 0.00 94 1021.8
20260509023559 44 66 0.0 0.0 0.00 0.01 0.00 94 1021.8
20260509023059 44 66 0.0 1.7 0.00 0.01 0.00 94 1021.9
20260509022556 44 66 0.0 1.7 0.00 0.01 0.00 94 1021.9
20260509022059 44 66 0.0 1.7 0.00 0.01 0.00 94 1021.9
20260509021557 44 67 0.0 1.7 0.00 0.01 0.00 94 1022.0
20260509021058 44 67 0.0 0.0 0.00 0.01 0.00 94 1022.0
20260509020555 44 67 0.0 1.7 0.00 0.01 0.00 94 1022.0
20260509020105 44 68 0.0 1.7 0.00 0.01 0.00 94 1021.8
20260509015555 44 68 0.0 1.7 0.00 0.01 0.00 94 1021.9
20260509015055 44 69 0.0 1.7 0.00 0.01 0.00 94 1021.8
20260509014556 44 69 0.0 1.7 0.00 0.01 0.00 94 1021.8
20260509014054 44 68 0.0 3.5 0.00 0.01 0.00 94 1021.8
20260509013554 44 67 0.0 3.5 0.00 0.01 0.00 94 1021.8
20260509013058 44 61 0.9 2.6 0.00 0.01 0.00 94 1021.7
20260509012553 44 67 0.9 2.6 0.00 0.01 0.00 94 1021.8
20260509012052 44 34 0.9 2.6 0.00 0.01 0.00 95 1021.7
20260509011556 44 57 0.0 2.6 0.00 0.01 0.00 95 1021.7
20260509011052 44 336 0.0 2.6 0.00 0.01 0.00 95 1021.7
20260509010551 44 66 0.9 2.6 0.00 0.01 0.00 96 1021.7
20260509010051 44 67 0.0 2.6 0.00 0.01 0.00 96 1021.7
20260509005550 44 69 0.9 2.6 0.00 0.01 0.00 97 1021.7
20260509005051 44 70 0.0 2.6 0.00 0.01 0.00 97 1021.7
20260509004557 44 70 0.9 2.6 0.00 0.01 0.00 97 1021.6
20260509004049 44 71 0.0 2.6 0.00 0.01 0.00 97 1021.7
20260509003549 44 74 0.0 2.6 0.00 0.01 0.00 98 1021.8
20260509003054 44 64 0.9 2.6 0.00 0.01 0.00 98 1021.7
20260509002547 44 63 0.9 2.6 0.00 0.01 0.00 97 1021.7
20260509002048 44 73 0.9 2.6 0.00 0.01 0.00 97 1021.8
20260509001546 44 84 0.0 2.6 0.00 0.01 0.00 97 1021.9
20260509001045 44 81 0.0 2.6 0.00 0.01 0.00 97 1021.8
20260509000545 44 81 0.0 1.7 0.00 0.01 0.00 97 1021.8
20260509000044 44 82 0.0 0.0 0.00 0.01 0.00 98 1021.8
20260508235544 44 82 0.0 0.0 0.00 0.01 0.00 98 1022.0
20260508235045 44 82 0.0 0.0 0.00 0.01 0.00 98 1022.0
20260508234544 44 83 0.0 1.7 0.00 0.01 0.00 98 1022.0
20260508234043 44 83 0.0 1.7 0.00 0.01 0.00 98 1022.0
20260508233544 44 84 0.0 1.7 0.00 0.01 0.00 97 1021.9
20260508233043 44 91 0.9 3.5 0.00 0.01 0.00 97 1022.0
20260508232544 44 94 0.9 3.5 0.00 0.01 0.00 97 1022.0
20260508232041 44 94 0.9 2.6 0.00 0.01 0.00 98 1022.0
20260508231540 44 62 0.0 0.9 0.00 0.01 0.00 98 1022.1
20260508231040 44 61 0.0 1.7 0.00 0.01 0.00 98 1021.9
20260508230541 44 61 0.9 3.5 0.00 0.01 0.00 98 1022.1
20260508230040 44 350 0.0 3.5 0.00 0.01 0.00 98 1022.0
20260508225539 44 81 0.0 2.6 0.00 0.01 0.00 98 1022.1
20260508225041 44 96 0.0 2.6 0.00 0.01 0.00 97 1022.1
20260508224549 44 96 0.9 2.6 0.00 0.01 0.00 98 1022.1
20260508224037 44 89 0.0 2.6 0.00 0.01 0.00 97 1022.1
20260508223536 44 87 0.0 2.6 0.00 0.01 0.00 98 1022.1
20260508223046 44 88 0.0 2.6 0.00 0.01 0.00 98 1022.1
20260508222535 44 97 0.0 5.2 0.00 0.01 0.00 98 1022.2
20260508222034 44 97 1.7 5.2 0.00 0.01 0.00 98 1022.1
20260508221534 44 103 1.7 3.5 0.00 0.01 0.00 98 1022.2
20260508221033 44 98 0.0 2.6 0.00 0.01 0.00 98 1022.1
20260508220532 44 98 0.9 3.5 0.00 0.01 0.00 98 1022.1
20260508220034 44 98 1.7 3.5 0.00 0.01 0.00 98 1022.1
20260508215532 44 80 0.9 3.5 0.00 0.01 0.01 98 1022.2
20260508215032 44 94 1.7 3.5 0.00 0.01 0.01 98 1022.2
20260508214531 44 100 0.0 2.6 0.00 0.01 0.01 97 1022.1
20260508214031 44 89 0.9 3.5 0.00 0.01 0.01 97 1022.0
20260508213531 44 87 1.7 3.5 0.00 0.01 0.01 97 1022.2
20260508213031 44 65 0.0 2.6 0.00 0.01 0.01 97 1022.2
20260508212531 44 63 0.0 1.7 0.00 0.01 0.01 97 1022.1
20260508212033 44 53 0.0 3.5 0.00 0.01 0.01 97 1022.2
20260508211530 44 53 0.0 3.5 0.00 0.01 0.01 97 1022.2
20260508211030 44 90 0.9 2.6 0.00 0.01 0.01 97 1022.1
20260508210530 44 87 0.9 2.6 0.00 0.01 0.01 97 1022.1
20260508210031 44 112 0.0 2.6 0.00 0.01 0.01 97 1022.2
20260508205531 44 107 0.9 2.6 0.00 0.01 0.01 97 1022.2
20260508205030 44 112 0.0 0.0 0.00 0.01 0.01 97 1022.1
20260508204532 44 111 0.0 0.0 0.00 0.01 0.01 97 1022.1
20260508204029 44 112 0.0 2.6 0.00 0.01 0.01 97 1022.1
20260508203528 43 105 0.0 4.3 0.00 0.01 0.01 97 1022.1
20260508203028 43 100 0.9 4.3 0.00 0.01 0.01 97 1022.0
20260508202528 43 105 0.9 3.5 0.00 0.01 0.01 97 1022.0
20260508202029 43 107 0.0 7.0 0.00 0.01 0.01 97 1022.0
20260508201530 43 96 1.7 7.0 0.00 0.01 0.01 97 1021.9
20260508201029 43 168 0.9 4.3 0.00 0.01 0.01 97 1021.8
20260508200526 43 113 0.9 3.5 0.00 0.01 0.01 97 1021.7
20260508200027 43 89 1.7 3.5 0.00 0.01 0.01 97 1021.6
20260508195530 43 102 1.7 5.2 0.00 0.01 0.01 97 1021.6
20260508195025 43 91 1.7 6.1 0.00 0.01 0.01 97 1021.5
20260508194533 43 93 0.9 3.5 0.00 0.01 0.01 97 1021.6
20260508194024 43 95 0.9 2.6 0.00 0.01 0.01 97 1021.6
20260508193524 43 97 0.9 2.6 0.00 0.01 0.01 97 1021.5
20260508193024 43 84 0.9 3.5 0.00 0.01 0.01 97 1021.5
20260508192528 43 86 0.9 2.6 0.00 0.01 0.01 97 1021.4
20260508192024 43 60 0.9 3.5 0.00 0.01 0.01 97 1021.4
20260508191532 43 43 0.9 3.5 0.00 0.01 0.01 97 1021.3
20260508191023 43 76 0.9 2.6 0.00 0.01 0.01 97 1021.5
20260508190623 43 76 0.0 2.6 0.00 0.01 0.01 97 1021.4
20260508190024 43 116 0.0 0.9 0.00 0.01 0.01 96 1021.4
20260508185522 43 116 0.0 1.7 0.00 0.02 0.01 96 1021.4
20260508185022 43 98 0.0 2.6 0.00 0.02 0.01 96 1021.3
20260508184524 44 98 0.0 2.6 0.00 0.02 0.01 96 1021.3
20260508184022 44 96 0.0 1.7 0.00 0.02 0.01 96 1021.3
20260508183522 44 96 0.0 1.7 0.00 0.02 0.01 95 1021.2
20260508183028 44 80 0.0 0.9 0.00 0.02 0.01 95 1021.2
20260508182521 44 80 0.0 0.9 0.00 0.02 0.01 95 1021.1
20260508182020 45 79 0.0 0.9 0.00 0.02 0.01 95 1021.1
20260508181520 45 77 0.0 1.7 0.00 0.02 0.01 95 1021.1
20260508181021 45 77 0.0 1.7 0.00 0.02 0.01 95 1021.1
20260508180520 45 90 0.0 0.0 0.00 0.02 0.01 95 1021.0
20260508180022 45 78 0.0 1.7 0.00 0.02 0.01 94 1021.0
20260508175520 46 81 0.0 2.6 0.00 0.02 0.01 94 1021.0
20260508175020 46 61 0.9 2.6 0.00 0.02 0.01 95 1021.1
20260508174520 46 49 0.0 2.6 0.00 0.02 0.01 95 1020.9
20260508174022 46 101 0.9 2.6 0.00 0.02 0.01 95 1021.1
20260508173519 46 83 0.0 1.7 0.00 0.02 0.01 95 1021.0
20260508173020 46 64 0.0 3.5 0.00 0.02 0.01 94 1020.9
20260508172518 46 70 0.9 3.5 0.00 0.02 0.01 94 1020.9
20260508172018 46 94 0.9 3.5 0.00 0.02 0.01 94 1020.9
20260508171518 47 108 0.9 2.6 0.00 0.02 0.01 94 1020.9
20260508171017 47 67 0.0 2.6 0.00 0.02 0.01 94 1021.0
20260508170517 47 65 0.0 3.5 0.00 0.02 0.01 94 1020.9
20260508170019 47 76 0.0 3.5 0.00 0.02 0.01 94 1020.9
20260508165619 47 39 0.0 1.7 0.00 0.03 0.01 94 1020.8
20260508165023 47 100 0.0 3.5 0.00 0.03 0.01 94 1020.8
20260508164517 47 102 0.9 3.5 0.00 0.03 0.01 93 1020.7
20260508164017 47 102 0.9 3.5 0.00 0.03 0.01 93 1020.9
20260508163516 47 74 0.9 3.5 0.00 0.03 0.01 93 1020.8
20260508163027 47 103 0.0 3.5 0.00 0.03 0.01 93 1020.8
20260508162519 47 85 0.0 3.5 0.00 0.03 0.01 93 1020.9
20260508162016 47 103 0.9 2.6 0.00 0.03 0.01 93 1020.9
20260508161515 47 93 0.9 2.6 0.00 0.03 0.01 93 1021.1
20260508161016 47 97 0.9 3.5 0.00 0.03 0.01 92 1021.0
20260508160515 47 98 1.7 3.5 0.00 0.03 0.01 92 1020.9
20260508160021 48 78 0.0 3.5 0.00 0.03 0.01 92 1021.0
20260508155518 48 76 0.9 2.6 0.00 0.03 0.01 92 1021.1
20260508155014 48 58 0.9 3.5 0.00 0.03 0.01 94 1020.9
20260508154516 47 69 0.9 3.5 0.00 0.03 0.01 95 1021.0
20260508154018 46 81 0.9 3.5 0.00 0.03 0.01 95 1021.0
20260508153515 46 89 0.0 3.5 0.00 0.03 0.01 95 1021.0
20260508153011 46 82 0.9 2.6 0.00 0.03 0.01 95 1020.9
20260508152513 46 63 0.0 3.5 0.00 0.03 0.01 95 1021.0
20260508152014 46 49 0.0 2.6 0.00 0.03 0.01 95 1021.0
20260508151512 46 59 0.0 2.6 0.00 0.03 0.01 95 1021.2
20260508151013 46 133 0.0 1.7 0.00 0.03 0.01 96 1021.3
20260508150510 46 134 0.0 1.7 0.00 0.03 0.01 96 1021.2
20260508150032 46 138 0.9 1.7 0.00 0.03 0.01 96 1021.3
20260508145509 46 82 0.0 2.6 0.00 0.06 0.01 96 1021.3
20260508145010 46 81 0.9 2.6 0.00 0.06 0.01 96 1021.3
20260508144509 46 78 0.0 2.6 0.00 0.06 0.01 96 1021.3
20260508144010 46 78 0.0 1.7 0.00 0.06 0.01 96 1021.3
20260508143509 46 78 0.0 2.6 0.01 0.06 0.01 96 1021.3
20260508143011 46 124 0.9 2.6 0.01 0.06 0.01 96 1021.4
20260508142508 46 132 0.0 2.6 0.01 0.06 0.01 96 1021.3
20260508142007 46 81 0.9 3.5 0.01 0.06 0.01 96 1021.3
20260508141508 46 92 0.9 3.5 0.01 0.06 0.01 96 1021.2
20260508141006 46 306 0.9 2.6 0.01 0.06 0.01 97 1021.1
20260508140509 46 85 0.0 3.5 0.01 0.06 0.01 96 1021.2
20260508140011 46 307 0.9 3.5 0.01 0.06 0.01 96 1021.3
20260508135505 46 196 0.0 2.6 0.01 0.06 0.01 96 1021.2
20260508135006 46 84 0.0 4.3 0.01 0.06 0.01 96 1021.2
20260508134505 46 62 0.9 4.3 0.01 0.06 0.01 96 1021.2
20260508134008 46 126 0.9 3.5 0.00 0.05 0.00 95 1021.2
20260508133507 46 93 1.7 3.5 0.00 0.05 0.00 96 1021.2
20260508133008 46 94 0.0 3.5 0.00 0.05 0.00 96 1021.1
20260508132504 46 95 0.9 3.5 0.00 0.05 0.00 97 1021.1
20260508132003 46 68 0.0 3.5 0.00 0.05 0.00 98 1021.2
20260508131503 46 57 0.0 0.0 0.00 0.05 0.00 98 1021.2
20260508131005 45 57 0.0 2.6 0.00 0.05 0.00 97 1021.1
20260508130503 45 38 0.0 2.6 0.00 0.05 0.00 98 1021.2
20260508130003 45 82 0.0 0.9 0.00 0.05 0.00 97 1021.2
20260508125502 45 82 0.0 3.5 0.00 0.09 0.00 97 1021.2
20260508125003 45 74 1.7 3.5 0.00 0.09 0.00 97 1021.1
20260508124502 45 81 0.0 3.5 0.00 0.09 0.00 97 1021.1
20260508124002 45 75 0.0 2.6 0.00 0.09 0.00 97 1021.2
20260508123502 45 74 0.0 2.6 0.00 0.09 0.00 96 1021.3
20260508123001 45 72 0.0 3.5 0.00 0.09 0.00 96 1021.3
20260508122600 45 72 0.0 2.6 0.00 0.09 0.00 96 1021.2
20260508122059 45 66 0.9 2.6 0.00 0.09 0.00 97 1021.2
20260508121559 45 127 0.0 2.6 0.00 0.09 0.00 97 1021.1
20260508121058 45 103 0.0 2.6 0.00 0.09 0.00 97 1021.1
20260508120558 45 104 0.0 4.3 0.00 0.09 0.00 97 1021.1
20260508120101 45 58 0.9 4.3 0.00 0.09 0.00 97 1021.0
20260508115601 45 75 0.0 2.6 0.00 0.09 0.00 97 1020.9
20260508115057 45 94 0.9 3.5 0.00 0.09 0.00 97 1021.1
20260508114557 45 57 1.7 3.5 0.00 0.09 0.00 97 1021.0
20260508114057 45 105 0.9 2.6 0.00 0.09 0.00 96 1021.1
20260508113557 45 59 0.0 3.5 0.00 0.09 0.00 97 1021.0
20260508113058 45 77 0.0 2.6 0.00 0.09 0.00 97 1021.0
20260508112556 45 70 0.0 2.6 0.00 0.09 0.00 97 1021.0
20260508112057 45 81 0.0 0.9 0.00 0.09 0.00 97 1021.1
20260508111603 45 81 0.0 3.5 0.00 0.09 0.00 97 1021.1
20260508111056 45 80 0.9 4.3 0.00 0.09 0.00 96 1021.1
20260508110556 45 65 1.7 4.3 0.00 0.09 0.00 97 1021.1
20260508105555 45 265 0.9 1.7 0.00 0.09 0.00 97 1021.0
20260508105055 45 229 0.0 1.7 0.00 0.09 0.00 97 1021.1
20260508104555 45 75 0.0 3.5 0.00 0.09 0.00 97 1021.0
20260508104054 45 75 0.0 3.5 0.00 0.09 0.00 97 1021.0
20260508103553 44 70 0.0 3.5 0.00 0.09 0.00 97 1021.0
20260508103054 45 71 0.0 3.5 0.00 0.09 0.00 97 1021.0
20260508102551 45 56 0.0 3.5 0.00 0.09 0.00 98 1021.0
20260508102051 45 65 0.9 3.5 0.00 0.09 0.00 98 1020.9
20260508101553 45 106 0.9 2.6 0.00 0.09 0.00 98 1020.9
20260508101051 44 89 0.0 3.5 0.00 0.09 0.00 98 1020.9
20260508100549 44 72 0.9 3.5 0.00 0.09 0.00 98 1020.9
20260508100049 44 76 0.9 3.5 0.00 0.09 0.00 98 1021.0
20260508095551 44 70 0.9 3.5 0.00 0.10 0.00 98 1021.0
20260508095049 44 32 0.9 2.6 0.00 0.10 0.00 98 1020.8
20260508094550 44 75 0.0 2.6 0.00 0.10 0.00 98 1020.8
20260508094049 44 67 0.0 2.6 0.00 0.10 0.00 98 1020.9
20260508093551 44 103 0.0 2.6 0.00 0.10 0.00 98 1021.0
20260508093050 44 17 0.0 2.6 0.00 0.10 0.00 98 1020.8
20260508092548 44 204 0.9 3.5 0.00 0.10 0.00 98 1021.0
20260508092046 44 115 0.9 5.2 0.00 0.10 0.00 98 1020.8
20260508091559 44 93 0.0 5.2 0.00 0.10 0.00 99 1020.8
20260508091045 44 216 0.0 1.7 0.00 0.10 0.00 99 1020.8
20260508090545 44 85 0.0 0.9 0.00 0.10 0.00 99 1020.7
20260508090045 43 84 0.0 3.5 0.00 0.10 0.00 99 1020.7
20260508085544 43 74 0.9 3.5 0.00 0.10 0.00 99 1020.7
20260508085046 43 139 0.9 2.6 0.00 0.10 0.00 99 1020.6
20260508084550 44 86 0.0 3.5 0.00 0.10 0.00 99 1020.6
20260508084043 44 82 0.9 3.5 0.00 0.10 0.00 99 1020.5
20260508083542 43 86 0.0 2.6 0.00 0.10 0.00 99 1020.6
20260508083052 43 95 0.9 5.2 0.00 0.10 0.00 99 1020.4
20260508082541 43 63 0.9 5.2 0.00 0.10 0.00 99 1020.4
20260508082041 43 85 0.9 5.2 0.00 0.10 0.00 99 1020.4
20260508081546 43 90 0.9 3.5 0.00 0.10 0.00 99 1020.4
20260508081041 44 67 1.7 3.5 0.00 0.10 0.00 100 1020.5
20260508080541 44 85 0.0 3.5 0.00 0.10 0.00 100 1020.4
20260508080057 44 97 1.7 3.5 0.00 0.10 0.00 100 1020.3
20260508075539 43 99 0.9 3.5 0.00 0.14 0.00 100 1020.3
20260508075038 43 78 0.9 3.5 0.00 0.14 0.00 100 1020.2
20260508074638 43 86 0.9 5.2 0.00 0.14 0.00 100 1020.1
20260508074037 43 73 0.9 7.0 0.00 0.14 0.00 100 1020.1
20260508073537 43 76 1.7 7.8 0.00 0.14 0.00 100 1020.0
20260508073043 43 69 2.6 7.8 0.00 0.14 0.00 100 1019.9
20260508072534 43 100 1.7 4.3 0.00 0.14 0.00 100 1020.0
20260508072034 43 82 0.9 5.2 0.00 0.14 0.00 100 1019.9
20260508071534 43 74 0.0 3.5 0.00 0.14 0.00 100 1019.8
20260508071032 43 69 0.9 2.6 0.00 0.14 0.00 100 1019.8
20260508070531 43 61 0.0 2.6 0.00 0.14 0.00 100 1019.8
20260508070033 43 61 0.9 4.3 0.00 0.14 0.00 100 1019.6
20260508065534 43 31 0.0 5.2 0.00 0.16 0.00 100 1019.7
20260508065029 43 89 0.0 5.2 0.00 0.16 0.00 100 1019.6
20260508064540 42 127 0.0 5.2 0.00 0.16 0.00 100 1019.5
20260508064029 42 127 1.7 5.2 0.00 0.16 0.00 100 1019.5
20260508063528 42 140 0.9 5.2 0.00 0.16 0.00 100 1019.4
20260508063028 42 86 0.9 4.3 0.00 0.16 0.00 99 1019.4
20260508062526 42 74 1.7 4.3 0.00 0.16 0.00 100 1019.4
20260508062026 42 69 0.9 3.5 0.00 0.16 0.00 100 1019.4
20260508061527 42 76 0.9 3.5 0.00 0.16 0.00 99 1019.4
20260508061025 42 76 0.9 3.5 0.00 0.16 0.00 100 1019.3
20260508060524 42 97 0.9 3.5 0.00 0.16 0.00 99 1019.2
20260508060022 42 88 1.7 3.5 0.00 0.16 0.00 99 1019.1
20260508055524 42 158 0.0 3.5 0.00 0.17 0.00 99 1019.1
20260508055022 42 90 0.9 2.6 0.00 0.17 0.00 99 1019.1
20260508054537 42 277 0.0 5.2 0.00 0.17 0.00 99 1019.0
20260508054021 42 99 0.0 5.2 0.00 0.17 0.00 99 1018.9
20260508053521 42 61 0.9 4.3 0.00 0.17 0.00 99 1018.8
20260508053021 42 66 0.9 4.3 0.00 0.17 0.00 99 1018.9
20260508052520 42 121 0.9 3.5 0.00 0.17 0.00 99 1018.9
20260508052019 42 94 0.9 3.5 0.00 0.17 0.00 99 1019.0
20260508051520 42 102 0.9 3.5 0.00 0.17 0.00 99 1018.8
20260508051020 42 275 0.0 3.5 0.00 0.17 0.00 99 1019.0
20260508050518 42 93 0.9 3.5 0.00 0.17 0.00 99 1018.8
20260508050018 42 93 0.9 4.3 0.00 0.17 0.00 99 1018.7
20260508045518 42 64 0.9 4.3 0.00 0.17 0.00 99 1018.6
20260508045017 42 90 1.7 5.2 0.00 0.17 0.00 100 1018.6
20260508044517 42 82 0.9 2.6 0.00 0.17 0.00 100 1018.6
20260508044017 42 222 0.0 2.6 0.00 0.17 0.00 99 1018.5
20260508043515 42 225 0.0 1.7 0.00 0.17 0.00 99 1018.5
20260508043014 42 240 0.0 2.6 0.00 0.17 0.00 99 1018.5
20260508042513 42 227 0.0 2.6 0.00 0.17 0.00 99 1018.6
20260508042011 42 137 0.0 1.7 0.00 0.17 0.00 99 1018.5
20260508041511 42 86 0.0 0.0 0.00 0.17 0.00 99 1018.6
20260508041011 42 86 0.0 2.6 0.00 0.17 0.00 99 1018.6
20260508040511 42 86 0.0 2.6 0.00 0.17 0.00 99 1018.6
20260508040032 42 76 0.0 1.7 0.00 0.17 0.00 99 1018.7
20260508035508 42 75 0.0 3.5 0.00 0.22 0.00 99 1018.6
20260508035012 42 75 0.9 3.5 0.00 0.22 0.00 99 1018.6
20260508034507 42 72 0.0 2.6 0.00 0.22 0.00 99 1018.6
20260508034006 41 72 0.0 2.6 0.00 0.22 0.00 99 1018.5